Home > Weather > Sarasota > Past weeks

Flag for U.S.A. Weather for the Past 2 Weeks in Sarasota, Florida, U.S.A.

Now
47 °F

Clear.


Feels Like: 43 °F
Forecast: 45 / 70 °F
Wind: 8 mph from Northeast

Location: Sarasota-Bradenton International Airport

Current Time: Feb 14, 2016 at 5:53:46 AM

Latest Report: Feb 14, 2016 at 4:53 AM


Visibility: 10 mi

Pressure: 30.21 "Hg

Humidity: 77%

Dew point: 40 °F

Location of SarasotaLocation

Historic Weather in Sarasota — Graph

°F

Sarasota Temperature Yesterday

Maximum temperature yesterday: 71 °F (at 12:53 PM)
Minimum temperature yesterday: 53 °F (at 8:53 PM)
Average temperature yesterday: 61 °F

High & Low Weather Summary for the Past Weeks

 TemperatureHumidityPressure
High84 °F (Feb 3, 12:53 PM)100% (Jan 30, 7:53 AM)30.33 "Hg (Jan 30, 7:53 AM)
Low39 °F (Feb 8, 3:53 AM)27% (Feb 5, 1:53 PM)29.91 "Hg (Feb 8, 9:53 PM)
Average60 °F73%30.11 "Hg
* Reported Jan 30 3:53 AM — Feb 14 3:53 AM, Sarasota, Weather by CustomWeather, © 2016

Note: Actual official high and low records may vary slightly from our data, if they occured in-between our weather recording intervals... More about our weather records

Advertising

Sarasota Weather History for the Previous 24 Hours

 ConditionsComfort  
Time TempWeatherWind HumidityBarometerVisibility
3:53 AM
Sun, Feb 14
48 °FClear.7 mph77%30.22 "Hg10 mi
2:53 AM48 °FClear.7 mph80%30.22 "Hg10 mi
1:53 AM49 °FClear.6 mph77%30.25 "Hg10 mi
12:53 AM51 °FClear.9 mph69%30.25 "Hg10 mi
11:53 PM
Sat, Feb 13
53 °FClear.7 mph69%30.26 "Hg10 mi
10:53 PM54 °FClear.9 mph69%30.26 "Hg10 mi
9:53 PM55 °FClear.10 mph67%30.24 "Hg10 mi
8:53 PM53 °FClear.3 mph72%30.24 "Hg10 mi
7:53 PM55 °FClear.3 mph69%30.21 "Hg10 mi
6:53 PM55 °FClear.8 mph72%30.22 "Hg10 mi
5:53 PM59 °FSunny.12 mph60%30.22 "Hg10 mi
4:53 PM63 °FSunny.9 mph48%30.21 "Hg10 mi
3:53 PM65 °FSunny.12 mph44%30.21 "Hg10 mi
2:53 PM68 °FSunny.15 mph39%30.20 "Hg10 mi
1:53 PM70 °FSunny.13 mph44%30.21 "Hg10 mi
12:53 PM71 °FSunny.9 mph38%30.23 "Hg10 mi
11:53 AM70 °FSunny.14 mph38%30.25 "Hg10 mi
10:53 AM69 °FSunny.8 mph44%30.26 "Hg10 mi
9:53 AM66 °FSunny.10 mph59%30.25 "Hg10 mi
8:53 AM64 °FPassing clouds.9 mph87%30.24 "Hg10 mi
8:02 AM61 °FPartly sunny.5 mph97%30.23 "Hg10 mi
7:53 AM59 °FBroken clouds.3 mph100%30.22 "Hg10 mi
6:53 AM57 °FPassing clouds.3 mph100%30.21 "Hg10 mi
5:53 AM57 °FClear.6 mph100%30.18 "Hg10 mi
Weather by CustomWeather, © 2016

See weather overviewHow to use our weather pages